Home > Weather > Zermatt > Past weeks

Flag for Switzerland Past Weather in Zermatt, Valais, Switzerland — Yesterday and Last 2 Weeks

Now
71 °F

Mild.


Feels Like: 76 °F
Forecast: 44 / 48 °F
Wind: 12 mph from West

Location: Sion

Current Time: May 28, 2016 at 12:07:59 PM

Latest Report: May 28, 2016 at 11:00 AM


Visibility: N/A

Pressure: 29.88 "Hg (24.81 "Hg at 1604m altitude)

Humidity: 61%

Dew Point: 56 °F

Location of ZermattLocation

Past Weather in Zermatt — Graph

°F

Zermatt Temperature Yesterday

Maximum temperature yesterday: 83 °F (at 3:00 PM)
Minimum temperature yesterday: 55 °F (at 7:00 AM)
Average temperature yesterday: 69 °F

High & Low Weather Summary for the Past Weeks

 TemperatureHumidityPressure
High83 °F (May 27, 3:00 PM)93% (May 24, 3:00 AM)30.24 "Hg (May 24, 3:00 AM)
Low40 °F (May 16, 6:00 AM)21% (May 17, 3:00 PM)29.54 "Hg (May 13, 5:00 PM)
Average58 °F61%29.96 "Hg
* Reported May 13 11:00 AM — May 28 11:00 AM, Zermatt, Weather by CustomWeather, © 2016

Note: Actual official high and low records may vary slightly from our data, if they occured in-between our weather recording intervals... More about our weather records

Advertising

Zermatt Weather History for the Previous 24 Hours

Scroll right to see more
 ConditionsComfort  
Time TempWeatherWind HumidityBarometerVisibility
11:00 AM
Sat, May 28
71 °FMild.12 mph61%29.88 "HgN/A
10:00 AM69 °FMild.9 mph58%29.90 "HgN/A
9:00 AM66 °FMild.2 mph67%29.92 "HgN/A
8:00 AM64 °FOvercast.2 mph68%29.93 "Hg16 mi
7:00 AM61 °FCool.6 mph72%29.95 "HgN/A
6:00 AM60 °FCool.3 mph79%29.94 "HgN/A
5:00 AM59 °FThunderstorms. Overcast.2 mph89%29.95 "Hg12 mi
4:00 AM61 °FCool.2 mph86%29.96 "HgN/A
3:00 AM60 °FCool.3 mph89%29.96 "HgN/A
2:00 AM64 °FPassing clouds.1 mph65%29.93 "Hg12 mi
1:00 AM63 °FMild.2 mph76%29.93 "HgN/A
12:00 AM67 °FMild.1 mph64%29.91 "HgN/A
11:00 PM
Fri, May 27
67 °FPassing clouds.1 mph63%29.92 "Hg16 mi
10:00 PM71 °FMild.2 mph53%29.90 "HgN/A
9:00 PM73 °FMild.1 mph57%29.87 "HgN/A
8:00 PM76 °FPartly sunny.3 mph47%29.85 "Hg19 mi
7:00 PM78 °FPleasantly warm.2 mph39%29.83 "HgN/A
6:00 PM80 °FPleasantly warm.10 mph37%29.82 "HgN/A
5:00 PM81 °FPartly sunny.16 mph34%29.81 "Hg19 mi
4:00 PM82 °FPleasantly warm.13 mph33%29.81 "HgN/A
3:00 PM83 °FPleasantly warm.9 mph34%29.82 "HgN/A
2:00 PM82 °FPassing clouds.3 mph28%29.83 "Hg19 mi
1:00 PM78 °FPleasantly warm.2 mph34%29.86 "HgN/A
12:00 PM76 °FMild.3 mph37%29.88 "HgN/A
Weather by CustomWeather, © 2016

See weather overviewHow to use our weather pages